Change the Weather History Date:

Wednesday, January 23, 2013

  Actual Average Record
Temperature  
Mean Temperature 0 °F -  
Max Temperature 8 °F 17 °F 42 °F (2015)
Min Temperature -9 °F 2 °F -23 °F (2011)
Degree Days  
Heating Degree Days 66    
Moisture  
Dew Point -6 °F    
Average Humidity 73    
Maximum Humidity 92    
Minimum Humidity 59    
Precipitation  
Precipitation 0.00 in - - ()
Sea Level Pressure  
Sea Level Pressure 30.35 in    
Wind  
Wind Speed 9 mph (NNW)    
Max Wind Speed 28 mph    
Max Gust Speed 34 mph    
Visibility 8 miles    
Events Snow    
Averages and records for this station are not official NWS values.
T = Trace of Precipitation, MM = Missing Value Source: NWS Daily Summary

Daily Weather History Graph

Daily Weather History Graph

Search for Another Location

Airport or City:

Trip Planner

Search our weather history database for the weather conditions in past years. The results will help you decide how hot, cold, wet, or windy it might be!

Date:

Astronomy

Jan. 23, 2013 Rise Set
Actual Time 7:53 AM CST 5:19 PM CST
Civil Twilight 7:21 AM CST 5:51 PM CST
Nautical Twilight 6:45 AM CST 6:27 PM CST
Astronomical Twilight 6:10 AM CST 7:02 PM CST
Moon 2:28 PM CST (1/23) 5:07 AM CST (1/23)
Length of Visible Light 10h 30m
Length of Day
9h 25m
Waxing Gibbous, 89% of the Moon is Illuminated
Jan 23
Waxing Gibbous
Jan 26
Full
Feb 3
Last Quarter
Feb 10
New
Feb 17
First Quarter

Hourly Weather History & Observations

Time (CST) Temp. Windchill Dew Point Humidity Pressure Visibility Wind Dir Wind Speed Gust Speed Precip Events Conditions
12:13 AM 6.8 °F -2.0 °F 1.4 °F 79% 30.18 in 7.0 mi SE 4.6 mph - N/A Snow Light Snow
12:33 AM 6.8 °F - 1.4 °F 79% 30.17 in 10.0 mi Calm Calm - N/A Snow Light Snow
12:53 AM 6.8 °F - 1.4 °F 79% 30.16 in 7.0 mi Calm Calm - N/A Snow Light Snow
1:14 AM 8.6 °F - 1.4 °F 73% 30.16 in 4.0 mi Calm Calm - N/A Snow Light Snow
1:34 AM 8.6 °F - 3.2 °F 79% 30.16 in 3.0 mi Calm Calm - N/A Snow Light Snow
1:54 AM 8.6 °F - 3.2 °F 79% 30.16 in 4.0 mi Calm Calm - N/A Snow Light Snow
2:14 AM 8.6 °F - 3.2 °F 79% 30.15 in 5.0 mi Calm Calm - N/A Snow Light Snow
2:34 AM 8.6 °F - 3.2 °F 79% 30.15 in 3.0 mi Calm Calm - N/A Snow Light Snow
2:54 AM 8.6 °F - 3.2 °F 79% 30.15 in 4.0 mi Calm Calm - N/A Snow Light Snow
3:14 AM 8.6 °F - 3.2 °F 79% 30.15 in 4.0 mi Calm Calm - N/A Snow Light Snow
3:34 AM 6.8 °F - 3.2 °F 85% 30.15 in 10.0 mi Calm Calm - N/A   Scattered Clouds
3:54 AM 5.0 °F - 1.4 °F 85% 30.14 in 10.0 mi Calm Calm - N/A   Clear
4:14 AM 5.0 °F - 1.4 °F 85% 30.15 in 10.0 mi Calm Calm - N/A   Clear
4:33 AM 3.2 °F - 1.4 °F 92% 30.15 in 10.0 mi Calm Calm - N/A   Clear
4:54 AM 1.4 °F - -2.2 °F 85% 30.15 in 7.0 mi Calm Calm - N/A   Mostly Cloudy
5:14 AM 1.4 °F - -2.2 °F 85% 30.14 in 5.0 mi Calm Calm - N/A Snow Light Snow
5:34 AM 1.4 °F - -2.2 °F 85% 30.14 in 10.0 mi Calm Calm - N/A   Scattered Clouds
5:54 AM -0.4 °F - -5.8 °F 78% 30.15 in 10.0 mi Calm Calm - N/A   Clear
6:14 AM -2.2 °F - -5.8 °F 85% 30.15 in 10.0 mi Calm Calm - N/A   Clear
6:34 AM -2.2 °F - -5.8 °F 85% 30.16 in 10.0 mi Calm Calm - N/A   Clear
6:54 AM -2.2 °F - -5.8 °F 85% 30.16 in 10.0 mi Calm Calm - N/A   Clear
7:13 AM -2.2 °F -14.2 °F -7.6 °F 78% 30.17 in 10.0 mi WNW 5.8 mph - N/A   Clear
7:34 AM 6.8 °F -8.6 °F 3.2 °F 85% 30.18 in 10.0 mi NW 11.5 mph - N/A   Clear
7:54 AM 6.8 °F -10.0 °F 3.2 °F 85% 30.20 in 10.0 mi NW 13.8 mph - N/A   Clear
8:14 AM 6.8 °F -10.0 °F 3.2 °F 85% 30.20 in 10.0 mi NW 13.8 mph - N/A   Scattered Clouds
8:34 AM 6.8 °F -10.7 °F 3.2 °F 85% 30.21 in 10.0 mi NW 15.0 mph - N/A Snow Light Snow
8:54 AM 6.8 °F -10.7 °F 3.2 °F 85% 30.22 in 10.0 mi NW 15.0 mph - N/A   Mostly Cloudy
9:14 AM 6.8 °F -10.0 °F 1.4 °F 79% 30.24 in 10.0 mi NNW 13.8 mph - N/A   Mostly Cloudy
9:34 AM 6.8 °F -11.3 °F 1.4 °F 79% 30.25 in 10.0 mi NNW 16.1 mph 21.9 mph N/A Snow Light Snow
9:54 AM 6.8 °F -12.4 °F 1.4 °F 79% 30.27 in 4.0 mi NNW 18.4 mph 24.2 mph N/A Snow Light Snow
10:14 AM 6.8 °F -14.7 °F -0.4 °F 72% 30.29 in 2.5 mi NNW 24.2 mph - N/A Snow Light Snow
10:33 AM 6.8 °F -14.7 °F -0.4 °F 72% 30.30 in 1.5 mi NNW 24.2 mph - N/A Snow Light Snow
10:54 AM 6.8 °F -12.9 °F -0.4 °F 72% 30.32 in 4.0 mi NNW 19.6 mph 27.6 mph N/A   Haze
11:14 AM 6.8 °F -14.7 °F -2.2 °F 67% 30.33 in 2.5 mi NNW 24.2 mph - N/A   Haze
11:34 AM 6.8 °F -15.1 °F -2.2 °F 67% 30.34 in 2.5 mi NNW 25.3 mph - N/A   Haze
11:54 AM 6.8 °F -15.1 °F -2.2 °F 67% 30.35 in 4.0 mi NNW 25.3 mph - N/A   Haze
12:14 PM 6.8 °F -14.3 °F -2.2 °F 67% 30.34 in 2.5 mi NNW 23.0 mph 28.8 mph N/A   Haze
12:34 PM 6.8 °F -15.5 °F -2.2 °F 67% 30.35 in 2.0 mi NNW 26.5 mph 29.9 mph N/A   Haze
12:53 PM 5.0 °F -17.1 °F -2.2 °F 72% 30.36 in 1.8 mi North 24.2 mph 29.9 mph N/A   Haze
1:13 PM 3.2 °F -20.3 °F -4.0 °F 72% 30.37 in 1.5 mi NNW 26.5 mph 29.9 mph N/A Snow Light Snow
1:34 PM 3.2 °F -20.7 °F -4.0 °F 72% 30.37 in 2.5 mi NNW 27.6 mph 32.2 mph N/A   Haze
1:53 PM 3.2 °F -20.7 °F -5.8 °F 66% 30.38 in 1.8 mi NNW 27.6 mph 34.5 mph N/A   Haze
2:14 PM 3.2 °F -19.5 °F -4.0 °F 72% 30.40 in 3.0 mi NNW 24.2 mph 32.2 mph N/A   Haze
2:34 PM 3.2 °F -20.7 °F -5.8 °F 66% 30.40 in 7.0 mi North 27.6 mph 32.2 mph N/A   Mostly Cloudy
2:54 PM 1.4 °F -22.7 °F -7.6 °F 66% 30.41 in 10.0 mi NNW 26.5 mph 34.5 mph N/A   Scattered Clouds
3:13 PM 1.4 °F -22.7 °F -7.6 °F 66% 30.42 in 10.0 mi North 26.5 mph 32.2 mph N/A   Scattered Clouds
3:34 PM 1.4 °F -23.2 °F -9.4 °F 61% 30.44 in 10.0 mi NNW 27.6 mph - N/A   Scattered Clouds
3:53 PM 1.4 °F -21.0 °F -9.4 °F 61% 30.46 in 10.0 mi North 21.9 mph 33.4 mph N/A   Scattered Clouds
4:13 PM -0.4 °F -25.6 °F -9.4 °F 66% 30.47 in 10.0 mi North 27.6 mph 32.2 mph N/A   Scattered Clouds
4:33 PM -0.4 °F -24.3 °F -9.4 °F 66% 30.48 in 5.0 mi North 24.2 mph 31.1 mph N/A   Haze
4:53 PM -2.2 °F -27.1 °F -11.2 °F 66% 30.49 in 10.0 mi North 25.3 mph - N/A   Scattered Clouds
5:13 PM -2.2 °F -26.2 °F -9.4 °F 71% 30.51 in 5.0 mi North 23.0 mph - N/A   Haze
5:34 PM -2.2 °F -25.7 °F -11.2 °F 66% 30.52 in 10.0 mi North 21.9 mph 31.1 mph N/A   Scattered Clouds
5:54 PM -4.0 °F -29.6 °F -14.8 °F 60% 30.52 in 10.0 mi North 25.3 mph - N/A   Clear
6:13 PM -5.8 °F -31.0 °F -14.8 °F 65% 30.53 in 10.0 mi NNW 23.0 mph - N/A   Clear
6:33 PM -5.8 °F -31.0 °F -14.8 °F 65% 30.54 in 10.0 mi NNW 23.0 mph 26.5 mph N/A   Clear
6:54 PM -5.8 °F -29.4 °F -14.8 °F 65% 30.55 in 10.0 mi North 19.6 mph 24.2 mph N/A   Clear
7:13 PM -5.8 °F -28.2 °F -16.6 °F 60% 30.55 in 10.0 mi North 17.3 mph - N/A   Clear
7:33 PM -5.8 °F -28.2 °F -14.8 °F 65% 30.55 in 10.0 mi North 17.3 mph - N/A   Clear
7:53 PM -7.6 °F -31.1 °F -14.8 °F 71% 30.56 in 10.0 mi North 18.4 mph - N/A   Clear
8:14 PM -7.6 °F -30.5 °F -16.6 °F 65% 30.57 in 10.0 mi NNW 17.3 mph - N/A   Clear
8:33 PM -7.6 °F -29.1 °F -16.6 °F 65% 30.57 in 10.0 mi North 15.0 mph - N/A   Clear
8:53 PM -7.6 °F -30.5 °F -18.4 °F 59% 30.59 in 10.0 mi North 17.3 mph - N/A   Clear
9:14 PM -9.4 °F -29.8 °F -18.4 °F 65% 30.59 in 10.0 mi North 12.7 mph - N/A   Clear
9:34 PM -9.4 °F -28.9 °F -18.4 °F 65% 30.59 in 10.0 mi North 11.5 mph - N/A   Clear
9:53 PM -9.4 °F -28.9 °F -18.4 °F 65% 30.59 in 10.0 mi North 11.5 mph - N/A   Clear
10:13 PM -9.4 °F -25.6 °F -18.4 °F 65% 30.61 in 10.0 mi North 8.1 mph - N/A   Clear
10:33 PM -9.4 °F -26.8 °F -18.4 °F 65% 30.61 in 10.0 mi North 9.2 mph - N/A   Clear
10:53 PM -9.4 °F -25.6 °F -18.4 °F 65% 30.62 in 10.0 mi North 8.1 mph - N/A   Clear
11:14 PM -9.4 °F -24.3 °F -18.4 °F 65% 30.62 in 10.0 mi North 6.9 mph - N/A   Clear
11:53 PM -9.4 °F -20.9 °F -18.4 °F 65% 30.63 in 10.0 mi NNW 4.6 mph - N/A   Clear